Date,TemperatureHighF,TemperatureAvgF,TemperatureLowF,DewpointHighF,DewpointAvgF,DewpointLowF,HumidityHigh,HumidityAvg,HumidityLow,PressureMaxIn,PressureMinIn,WindSpeedMaxMPH,WindSpeedAvgMPH,GustSpeedMaxMPH,PrecipitationSumIn
2013-12-1,49.0,37.5,30.4,36.2,29.5,24.0,79,73,59,29.74,29.60,10,2,10,0.00
2013-12-2,43.9,34.4,26.1,31.5,26.2,19.2,85,73,54,29.62,29.52,7,1,7,0.00
2013-12-3,40.5,36.3,25.6,35.6,30.8,18.8,84,80,75,29.54,29.47,7,1,8,0.00
2013-12-4,52.9,46.0,39.2,48.8,41.5,35.0,88,84,79,29.53,29.28,12,2,12,0.00
2013-12-5,59.4,44.5,32.6,54.3,36.3,23.0,86,73,63,29.78,29.27,22,7,22,0.00
2013-12-6,32.6,29.3,22.9,23.5,18.9,13.1,71,65,58,29.94,29.71,8,2,8,0.00
2013-12-7,30.6,21.7,15.7,13.5,10.4,6.9,76,62,45,30.09,29.88,10,2,10,0.00
2013-12-8,30.6,22.6,14.0,27.6,16.3,6.2,88,76,67,30.03,29.31,10,3,10,0.00
2013-12-9,30.8,27.3,20.2,27.6,21.5,12.5,89,79,69,29.40,29.16,20,8,20,0.00
2013-12-10,24.5,19.0,12.6,12.5,9.4,3.7,76,66,49,29.35,29.00,20,7,20,0.00
2013-12-11,26.5,18.7,8.3,18.5,11.3,0.2,82,72,64,29.53,29.17,13,4,13,0.00
2013-12-12,16.4,13.8,7.0,8.6,3.9,-0.7,80,64,55,30.08,29.37,16,6,17,0.00
2013-12-13,32.2,23.6,16.6,22.2,15.5,8.6,75,71,64,30.01,29.90,11,3,11,0.00
2013-12-14,23.8,21.7,19.8,19.5,17.3,15.0,86,83,72,30.00,29.53,14,6,14,0.00
2013-12-15,25.6,20.9,15.1,21.1,16.1,9.8,85,82,74,29.78,29.53,18,6,18,0.00
2013-12-16,23.0,13.8,4.0,17.8,7.7,-0.7,84,76,66,29.92,29.72,10,1,10,0.00
2013-12-17,26.3,21.7,14.8,20.9,17.1,10.0,86,82,79,29.75,29.62,14,4,14,0.00
2013-12-18,29.5,23.8,17.3,21.7,17.7,12.6,88,78,66,29.86,29.66,14,5,14,0.00
2013-12-19,42.1,36.4,26.3,34.6,28.4,17.1,81,72,64,29.73,29.61,13,3,13,0.00
2013-12-20,42.1,38.5,35.5,39.7,35.4,30.7,91,89,81,29.64,29.45,7,1,7,0.00
2013-12-21,37.1,35.3,33.5,34.7,32.7,31.0,91,90,89,29.60,29.36,14,3,14,0.00
2013-12-22,40.5,36.2,33.5,36.6,32.7,31.1,92,87,80,29.70,29.25,21,6,22,0.00
2013-12-23,35.5,30.7,22.3,31.3,24.2,13.9,88,77,65,30.03,29.69,13,5,16,0.00
2013-12-24,24.1,17.8,12.1,14.0,8.9,5.1,80,68,52,30.27,30.02,13,4,13,0.00
2013-12-25,26.1,21.1,11.7,21.9,15.5,5.1,84,79,72,30.22,29.85,16,4,16,0.00
2013-12-26,29.0,26.9,25.2,24.3,21.2,17.6,88,79,68,30.02,29.77,14,5,14,0.00
2013-12-27,41.8,34.9,28.1,33.1,28.3,22.1,80,77,70,30.04,29.82,12,3,12,0.00
2013-12-28,48.8,40.5,35.3,37.0,32.7,29.9,81,74,63,29.86,29.64,18,6,18,0.00
2013-12-29,45.9,36.6,24.8,34.7,28.9,17.2,84,73,62,29.72,29.42,15,4,15,0.00
2013-12-30,24.8,20.9,16.7,17.6,10.9,5.2,77,65,55,29.99,29.71,12,3,13,0.00
2013-12-31,21.6,18.4,15.8,15.9,11.5,9.2,82,74,65,30.04,29.77,16,6,16,0.00